Tracking 19149 objects as of 22-Apr-2018
HD Live streaming from Space Station
objects crossing your sky now

CZ-3B DEB

Track CZ-3B DEB now!


NORAD ID: 40158
Int'l Code: 2010-042K
Perigee: 1,005.3 km
Apogee: 41,573.1 km
Inclination: 25.6 °
Period: 763.0 minutes
Semi major axis: 27660 km
RCS: Unknown
Launch date: September 4, 2010
Source: People's Republic of China (PRC)
Launch site: Xichang Space Center, China (XSC)

Note: This is SATELLITE DEBRIS
aabbcc
Your satellite tracking list
Your tracking list is empty




NASA's NSSDC Master Catalog

Two Line Element Set (TLE):
1 40158U 10042K   18106.64204316 -.00000006  00000-0  00000+0 0  9993
2 40158  25.6406 243.0981 7333234 270.7427  37.2993  1.88720675957765
Source of the keplerian elements: AFSPC